Location: Colonia Mina de C?rbuni
(46.1667°N, 22.7167°E)
Time: 22:40:02
(UTC+00:00)

Tiros 1 - Pass Details

Date: 26 April 2024
Orbit: 624 x 657 km, 48.4° (Epoch: 20 May)

Event Time Altitude Azimuth Distance (km) Brightness Sun altitude
Rises 20:09:00 0° 229° (SW) 2,946 10.5 -22.4°
Enters shadow 20:11:13 - 224° (SW) 2,099 9.7 -22.6°
Reaches altitude 10° 20:11:24 10° 223° (SW) 2,033 - -22.7°
Maximum altitude 20:15:54 48° 150° (SSE) 836 - -23.1°
Drops below altitude 10° 20:20:22 10° 76° (ENE) 2,019 - -23.5°
Sets 20:22:44 0° 71° (ENE) 2,924 - -23.8°
